HST 1 20580U 90037B 10211.73259046 .00000454 00000-0 21880-4 0 6123 2 20580 028.4699 315.5786 0003215 301.9264 058.1026 15.01005622911304 ISS (ZARYA) 1 25544U 98067A 10210.92591274 -.00001493 +00000-0 -67516-5 0 06089 2 25544 051.6445 011.8696 0007899 162.0873 335.0863 15.71304437670194 CXO 1 25867U 99040B 10208.78735174 .00000000 00000-0 10000-3 0 4958 2 25867 067.3752 051.3863 8224117 275.3383 006.8230 00.37813764 6545